sat.trackr.live / text

‹ back to catalog

STARLINK-31816

NORAD 59742 · 2024-090N

PAYLOAD ACTIVE UNKNOWN

§ Identity

Operator
Country
US
Launch date
2024-05-13
Launch site
AFETR
Launch vehicle
Mass (kg)
RCS (m²)

Purposes: comms

External: N2YO · Heavens-Above · Gunter

§ Orbital elements

Epoch: 2026-05-25T04:19:08.658048Z

Period
94.27 min
Inclination
43.0020°
Eccentricity
0.0001079
Mean motion
15.27580022 rev/d
Perigee alt
482.3 km
Apogee alt
483.8 km
Semi-major
6,861.2 km
B*
4.6454e-5
RAAN
111.8961°
Arg perigee
255.5819°
Mean anomaly
104.4913°
Rev number
11,511

§ Raw data

STARLINK-318161 59742U 24090N   26145.17996132  .00001016  00000+0  46454-4 0  99922 59742  43.0020 111.8961 0001079 255.5819 104.4913 15.27580022115110

JSON: /api/v1/satellites/59742 · /tle

For live sub-satellite position, see the globe view (requires WebGL).

§ Visibility from observer

Set your observer location to see the next 7 days of passes ≥ 10°. The values pass through the URL so the page stays shareable.

No JS? Fill the form by hand. The geolocation button needs JavaScript.